Hourly Data Report for September 21, 2018

TORONTO CITY
ONTARIO
Current Station Operator: ECCC - MSC

43°40'00.000" N
79°24'00.000" W
112.50 m
6158355
71508
XTO

Download Data

Hourly Data (September 2018)
Hourly Data Report for September 21, 2018
TIME
LST
Temp Definition
°C
Dew Point Definition
°C
Rel Hum Definition
%
Precip. Amount Definition
mm

Wind Dir Definition
10's deg

Wind Spd Definition
km/h
Visibility Definition
km
Stn Press Definition
kPa
Hmdx Definition


Wind Chill Definition


Weather Definition


00:00 19.2 16.2 83 0.0 LegendMM LegendMM   100.15     LegendNANA
01:00 19.5 16.8 84 0.0 LegendMM LegendMM   100.08     LegendNANA
02:00 19.5 16.6 83 0.0 LegendMM LegendMM   100.03     LegendNANA
03:00 19.5 16.6 83 0.0 LegendMM LegendMM   99.92     LegendNANA
04:00 20.1 17.2 83 0.0 LegendMM LegendMM   99.88 26   LegendNANA
05:00 20.5 17.4 83 0.0 LegendMM LegendMM   99.80 26   LegendNANA
06:00 20.4 17.6 84 0.0 LegendMM LegendMM   99.75 26   LegendNANA
07:00 22.7 19.9 84 0.0 LegendMM LegendMM   99.71 30   LegendNANA
08:00 24.1 19.9 77 0.0 LegendMM LegendMM   99.65 32   LegendNANA
09:00 24.6 20.0 76 0.0 LegendMM LegendMM   99.60 32   LegendNANA
10:00 25.8 19.9 70 0.0 LegendMM LegendMM   99.52 33   LegendNANA
11:00 27.4 19.5 62 0.0 LegendMM LegendMM   99.41 35   LegendNANA
12:00 29.0 18.6 53 0.0 LegendMM LegendMM   99.31 35   LegendNANA
13:00 29.1 18.9 54 0.0 LegendMM LegendMM   99.21 36   LegendNANA
14:00 29.2 17.5 49 0.0 LegendMM LegendMM   99.11 35   LegendNANA
15:00 29.7 17.5 48 0.0 LegendMM LegendMM   99.10 35   LegendNANA
16:00 29.0 18.0 51 0.0 LegendMM LegendMM   99.11 35   LegendNANA
17:00 25.5 17.4 61 0.0 LegendMM LegendMM   99.16 31   LegendNANA
18:00 25.5 15.2 53 0.0 LegendMM LegendMM   99.21 30   LegendNANA
19:00 24.9 13.6 49 0.0 LegendMM LegendMM   99.34 28   LegendNANA
20:00 22.6 10.7 47 0.0 LegendMM LegendMM   99.67     LegendNANA
21:00 20.2 9.2 49 0.0 LegendMM LegendMM   99.86     LegendNANA
22:00 18.5 8.7 53 0.0 LegendMM LegendMM   100.06     LegendNANA
23:00 16.3 6.0 50 0.0 LegendMM LegendMM   100.24     LegendNANA

Notes on Data Quality.

Legend

  • E = Estimated
  • M = Missing
  • NA = Not Available*
  • [empty] = Indicates an unobserved value
Date modified: